DELTA 1 DEB, 13524

Orbit data source: Space-Track

DELTA 1 DEB, 13524 is space debris in SSO originally from a launch on Tue, 06 Nov 1973 UTC launched from the Air Force Western Test Range (AFWTR). Debris objects in space refer to the collection of defunct objects orbiting the Earth. Examples of debris include non-operational satellites, rocket bodies, and fragments generated from explosions, collisions, or faulty payload assembly.

Loading next visibility...
Identifier
13524, 1973-086GM
Orbit
SSO
Country
Flag of USUS
Related business
Manufacturer
Unknown
Mission
Spacecraft
Bus & Motor
Unknown
Mass
Unknown
Launch date (UTC)
1973-11-06 (53 years ago)
Launch vehicle
Unknown
Launch site
Air Force Western Test Range (AFWTR)
Object type
Payload
Rocket body
Debris
Shape & HBR
Unknown shape, 1.1 m
Radar Cross Section
Medium (>0.1 m² and <1 m²)

Expand to show TLE details & history
Last TLE update: 5 days ago

TLE from 5 days ago
0 DELTA 1 DEB
1 13524U 73086GM  26259.99813258  .00000047  00000-0  65599-3 0  9996
2 13524 102.8715 275.6247 0042082 243.1764 148.9928 12.48413509 88191
Epoch: 2026-09-16T23:57Z
TLE epoch observation values (Epoch: 2026-09-16T23:57:18.654Z)
Latitude
31.5621°
Longitude
-87.6743°
Altitude
1,503.182 km
Speed
7.103 km/s
True Right ascension
17h 50m 22s
True Declination
31° 25' 24"
Sunlit
Object was in daylight at epoch
Visualization orbit readout
Latitude
Unknown
Longitude
Unknown
Altitude
Unknown
Speed
Unknown
Apparent Right ascension
Unknown
Apparent Declination
Unknown
Sunlit
N/A
Visualization observer readout
Local Sidereal Time
06:01:39
Azimuth
Unknown
Elevation
Unknown
Doppler factor
Unknown
Orbital elements
Apogee altitude
1,501.777 km
Perigee altitude
1,435.734 km
Semi-major axis
7,846.892 km
Eccentricity
0.00421
Inclination
102.8715°
RAAN
275.6247°
Arg. of periapsis
243.1764°
True anomaly
149.2401°
Mean anomaly
148.9928°
Eccentric anomaly
149.11656°
Mean motion
3.12246 °/min
Orbital period
115.29 mins
BSTAR
0.00065599
Loading maneuver chart data...
Computing Atmospheric mass density...
Loading historical data...
Loading historical data...
Loading historical data...
Loading historical data...
Loading historical data...
Loading historical data...
Loading historical data...

Documentation

Showing up to 5 results
|